#timestamp,LO_Frequency,Hit,StdDev 
1597644015.3,286047005.6,N
1597644035.1,286047007.5,Y
1597644055.9,286047004.3,P
1597644075.7,286047003.8,P
1597644095.5,286047003.8,P
1597644115.4,286047003.7,Y
1597644135.2,286047000.9,P
1597644155.1,286046998.5,N
1597644156.0,286046998.5,N
1597644175.8,286047000.5,N
1597644195.6,286047000.2,N
1597644215.5,286047002.2,N
1597644235.3,286047001.6,N
1597644255.1,286047001.4,N
1597644275.9,286047001.9,N
1597644295.7,286047003.2,N
1597644315.6,286047003.6,N
1597644335.4,286047004.4,N
1597644355.2,286047002.3,N
1597644375.1,286047002.8,N
1597644376.0,286047002.8,N
1597644395.8,286047000.0,N
1597644415.6,286047000.0,N
1597644435.5,286046999.7,N
1597644455.3,286047002.3,N
1597644475.2,286047002.3,N
1597644495.9,286047001.6,N
1597644515.7,286047001.4,N
1597644535.6,286047001.8,N
1597644555.4,286047003.9,N
1597644575.3,286047003.7,N
1597644595.1,286047006.0,Y
1597644596.0,286047006.0,P
1597644615.8,286047004.2,N
1597644635.7,286047004.1,N
1597644655.5,286047003.8,N
1597644675.3,286047003.5,N
1597644695.2,286047004.0,Y
1597644715.0,286046998.7,P
1597644715.9,286046998.7,N
1597644735.8,286047001.0,N
1597644755.6,286046998.1,N
1597644775.4,286046998.1,N
1597644795.3,286047001.2,N
1597644815.1,286047000.5,N
1597644835.9,286047002.6,N
1597644855.7,286046999.7,N
1597644875.5,286047000.2,N
1597644895.4,286046999.8,N
1597644915.2,286047001.8,N
1597644935.0,286047003.9,N
1597644935.9,286047003.9,N
1597644955.8,286047001.7,N
1597644975.6,286047004.1,N
1597644995.5,286047004.3,N
1597645015.3,286047004.3,N
1597645035.1,286047003.7,N
1597645055.9,286047004.1,N
1597645075.7,286047004.1,N
1597645095.5,286047003.1,N
1597645115.4,286047003.3,N
1597645135.2,286047003.2,N
1597645155.1,286047003.0,N
1597645156.0,286047003.0,N
1597645175.8,286047005.5,N
1597645195.6,286047003.0,N
1597645215.5,286047006.0,N
1597645235.3,286047006.0,N
1597645255.2,286047003.3,N
1597645275.9,286047003.1,N
1597645295.7,286047003.3,N
1597645315.6,286047005.1,N
1597645335.4,286047007.2,Y
1597645355.2,286047001.3,P
1597645375.1,286047003.8,P
1597645376.0,286047003.8,P
1597645395.8,286047003.9,Y
1597645415.7,286047002.1,P
1597645435.5,286047002.3,P
1597645455.3,286047001.9,P
1597645475.2,286047001.6,Y
1597645495.0,286046998.1,P
1597645495.9,286046998.1,N
1597645515.8,286046998.9,N
1597645535.6,286046999.4,N
1597645555.4,286047001.0,N
1597645575.3,286047000.4,N
1597645595.1,286047000.2,N
1597645615.9,286046999.9,N
1597645635.7,286047001.0,N
1597645655.5,286047000.9,N
1597645675.4,286047000.0,N
1597645695.2,286047000.5,N
1597645715.0,286047000.7,N
1597645715.9,286047000.7,N
1597645735.8,286046998.6,N
1597645755.6,286047001.1,N
1597645775.5,286046999.4,N
1597645795.3,286046997.5,N
1597645815.1,286046998.0,N
1597645835.9,286046997.9,N
1597645855.7,286046997.0,N
1597645875.5,286046996.8,N
1597645895.4,286046997.1,N
1597645915.2,286046997.3,N
1597645935.1,286046999.6,N
1597645936.0,286046999.6,N
1597645955.8,286046995.3,Y
1597645975.6,286046997.4,P
1597645995.5,286046997.4,N
1597646015.3,286046996.5,P
1597646035.1,286046997.1,N
1597646055.9,286046999.3,N
1597646075.7,286046999.5,N
1597646095.6,286046999.6,N
1597646115.4,286046998.8,N
1597646135.2,286046998.2,N
1597646155.1,286046999.2,N
1597646156.0,286046999.2,N
1597646175.8,286046997.3,N
1597646195.7,286046997.6,N
1597646215.5,286046997.8,N
1597646235.3,286046997.4,N
1597646255.2,286046997.4,N
1597646275.9,286046996.7,Y
1597646295.7,286046998.9,P
1597646315.6,286046999.3,N
1597646335.4,286046999.6,N
1597646355.3,286046997.0,Y
1597646375.1,286046996.5,P
1597646376.0,286046996.5,N
1597646395.8,286046997.2,N
1597646415.7,286046997.1,N
1597646435.5,286046997.3,N
1597646455.4,286046997.2,Y
1597646475.2,286046998.4,P
1597646495.0,286046998.7,N
1597646495.9,286046998.7,N
1597646515.8,286046998.8,N
1597646535.6,286046999.4,N
1597646555.4,286046996.5,Y
1597646575.3,286046998.3,P
1597646595.1,286046999.0,P
1597646615.9,286046999.3,N
1597646635.7,286046997.0,Y
1597646655.5,286046998.7,P
1597646675.4,286046999.0,P
1597646695.2,286046999.4,P
1597646715.1,286046997.0,Y
1597646716.0,286046997.0,P
1597646735.8,286046998.8,N
1597646755.6,286046999.0,N
1597646775.5,286046998.4,N
1597646795.3,286046998.5,N
1597646815.1,286046999.3,N
1597646835.9,286046998.5,N
1597646855.7,286047001.2,N
1597646875.6,286046998.3,N
1597646895.4,286046999.1,N
1597646915.2,286046999.3,N
1597646935.1,286046999.0,N
1597646936.0,286046999.0,N
1597646955.8,286046999.5,N
1597647005.7,286046997.0,E
1597647015.6,286046998.8,N
1597647035.4,286046999.9,P
1597647055.3,286047002.8,P
1597647075.1,286047000.9,N
1597647095.9,286047000.2,N
1597647115.7,286047000.3,N
1597647135.5,286047000.3,N
1597647155.4,286046998.1,N
1597647175.2,286046998.4,N
1597647195.0,286046998.5,N
1597647195.9,286046998.5,N
1597647215.8,286046998.6,N
1597647235.6,286047000.7,N
1597647255.5,286047000.4,N
1597647275.3,286047000.7,N
1597647295.1,286047000.5,N
1597647315.9,286046998.6,N
1597647335.7,286046998.3,N
1597647355.5,286046998.8,N
1597647375.4,286046998.4,N
1597647395.2,286046998.4,N
1597647415.1,286046999.3,N
1597647416.0,286046999.3,N
1597647435.8,286046999.1,N
1597647455.6,286046999.4,N
1597647475.5,286046997.4,N
1597647495.3,286046997.1,N
1597647515.2,286046996.5,N
1597647535.9,286046999.2,N
1597647555.7,286046995.4,Y
1597647575.6,286046996.0,P
1597647595.4,286046995.9,N
